Regional Weather Roundup
Issued by NWS Upton, NY

Home | Current Version | Previous Version | Text Only | Print | Product List | Glossary On
Versions: 1 2 3 4 5 6 7 8 9 10 11 12 13 14 15 16 17 18 19 20 21 22 23 24 25 26 27 28 29 30 31 32 33 34 35 36 37 38 39 40 41 42 43 44 45 46 47 48 49 50
000
ASUS41 KOKX 200608
RWROKX

REGIONAL WEATHER ROUNDUP
NATIONAL WEATHER SERVICE NEW YORK NY
100 AM EST MON NOV 20 2017

NOTE: "FAIR" INDICATES FEW OR NO CLOUDS BELOW 12,000 FEET WITH NO
SIGNIFICANT WEATHER AND/OR OBSTRUCTIONS TO VISIBILITY.

NYZ071-072-176-178-NJZ106-104-200700-
NEW YORK CITY METRO AREA

CITY           SKY/WX    TMP DP  RH WIND       PRES   REMARKS
Central Park   MOCLDY    40  27  59 W7G18     29.84R
Bronx Bot Gard   N/A     39  28  65 SW5       29.83R
LaGuardia APRT MOCLDY    42  28  57 W16       29.81R
Kennedy INTL   PTCLDY    41  26  55 W17G24    29.83R
Breezy Point     N/A     39 N/A N/A W12G18      N/A  WCI  32
Newark/Liberty PTCLDY    40  29  64 W20G25    29.83R WCI  30
Teterboro      CLOUDY    40  27  59 W8        29.81R WCI  34
$$

NYZ177-179-078>081-200700-
LONG ISLAND NEW YORK

CITY           SKY/WX    TMP DP  RH WIND       PRES   REMARKS
Jones Beach      N/A     41 N/A N/A W18G25      N/A
Matinecock PT    N/A     41 N/A N/A W24         N/A
Farmingdale    CLEAR     39  30  70 W8        29.81R WCI  33
MacArthur/ISP  MOCLDY    40  30  67 W14       29.79R WCI  32
Shirley        MOCLDY    41  30  65 W9        29.79R
Mt Sinai Harb    N/A    N/A N/A N/A W9G17       N/A
Westhampton    LGT RAIN  40  27  59 W9        29.78R WCI  34
East Hampton   CLOUDY    42  27  54 W14G20    29.75R
Southold       NOT AVBL
Montauk        NOT AVBL
$$

NYZ052-065-067-200700-
HUDSON VALLEY

CITY           SKY/WX    TMP DP  RH WIND       PRES   REMARKS
White Plains   MOCLDY    37  28  70 W7        29.78R WCI  32
Larchmont Harb   N/A     39 N/A N/A SW14        N/A  WCI  31
Croton On Huds   N/A     39 N/A N/A W13         N/A  WCI  32
Newburgh       NOT AVBL
Montgomery     CLEAR     36  21  54 W9        29.78R WCI  29
Poughkeepsie   CLEAR     36  24  62 W13G22    29.78R WCI  27
Albany         CLOUDY    33  25  72 NW14G20   29.75S WCI  23
$$

NJZ001-105-106-008-010-013-015-019>022-104-200700-
NEW JERSEY

CITY           SKY/WX    TMP DP  RH WIND       PRES   REMARKS
Newark/Liberty PTCLDY    40  29  64 W20G25    29.83R WCI  30
Teterboro      CLOUDY    40  27  59 W8        29.81R WCI  34
Caldwell       CLOUDY    38  28  67 VRB5      29.83R WCI  34
Somerville     MOCLDY    39  28  64 VRB7      29.83R WCI  34
Linden         CLOUDY    40  28  62 NW9G18    29.84R WCI  34
Perth Amboy      N/A     39 N/A N/A W15G22      N/A  WCI  31
Sussex         MOCLDY    37  25  61 W6        29.81R WCI  32
Andover        NOT AVBL
Trenton        PTCLDY    39  26  59 W8        29.86R WCI  33
Millville      PTCLDY    40  29  64 W10       29.92R WCI  33
Atlantic City  CLEAR     39  27  62 W9        29.90R WCI  33
Wrightstown    PTCLDY    39  25  58 W9        29.85R WCI  32
Toms River     CLEAR     39  26  59 W9        29.88R WCI  33
Belmar         CLEAR     39  27  62 W10       29.86R WCI  32
$$

PAZ047>061-062-071-200700-
EASTERN PENNSYLVANIA

CITY           SKY/WX    TMP DP  RH WIND       PRES   REMARKS
Philadelphia   PTCLDY    40  25  55 W15       29.91R WCI  32
Allentown      PTCLDY    37  25  61 NW14      29.86S WCI  28
Scranton       CLOUDY    33  25  72 W10       29.83R WCI  25
$$

CTZ002-004>006-009-010-012-RIZ004-006-007-MAZ004-011-015-200700-
SOUTHERN NEW ENGLAND
 IN CT

CITY           SKY/WX    TMP DP  RH WIND       PRES   REMARKS
Bradley INTL   FLURRIES  37  26  64 N9        29.73R WCI  30
Hartford       CLOUDY    39  29  67 NW8       29.75R WCI  33
Danbury        CLEAR     37  24  59 W10       29.77R WCI  30
Wtrbury/Oxford CLEAR     35  26  69 W7        29.74R WCI  29
Norwalk Harbor   N/A     39 N/A N/A W13         N/A  WCI  32
Bridgeport     PTCLDY    40  26  57 W10       29.77R WCI  33
Meriden        CLEAR     30  26  85 CALM      29.75R
New Haven      PTCLDY    41  27  57 W8        29.76R
Chester        FAIR      36  27  69 VRB6      29.73R WCI  31
Groton         CLEAR     39  26  59 W12       29.73R WCI  32
Wilimantic     CLOUDY    38  28  67 W8        29.73R WCI  32

 IN RI

CITY           SKY/WX    TMP DP  RH WIND       PRES   REMARKS
Providence     PTCLDY    37  26  64 W7        29.72R WCI  32
Block Island   CLEAR     42  27  55 NW14G28   29.73R
Westerly       CLEAR     37  26  64 CALM      29.73R
 IN MA

CITY           SKY/WX    TMP DP  RH WIND       PRES   REMARKS
Boston         PTCLDY    38  24  57 W18G26    29.66R WCI  28
Worcester      CLEAR     31  22  69 W13       29.64R WCI  21
Westfield      CLOUDY    35  27  72 W15G21    29.72R WCI  25
Provincetown   CLEAR     39  26  59 W21       29.67R WCI  29
Nantucket      CLEAR     40  27  59 W20G31    29.70R WCI  30
$$

ANZ330-335-338-340-345-350-353-355-200700-
COASTAL MARINE OBSERVATIONS


STATION/POSITION TIME  SKY/WX   TEMP    WIND        PRES    VSBY  WAVE
                                AIR SEA DIR/SP/G                  HT/PER
                 (UTC)          (F)     (DEG/KT/KT) (MB)    (MI)  (FT/S)
NY HARB ENTRANCE 0450            45 57  280/ 25/ 31 1008.2          4/ 4
20 S FIRE ISLAND 0450            46 57  290/ 25/ 31 1008.2          7/ 5
GREAT SOUTH BAY  0530            42 47  280/ 17/ 23   N/A
HUDSON CANYON    0450            49 60  290/ 23/ 33 1008.1         10/ 8
KINGS POINT      0548               51  320/ 12/ 15 1010.3
EXECUTION ROCKS  0530            42     250/ 16/ 19   N/A
WESTERN LI SOUND 0449            42     260/ 19/ 25   N/A           2/ 4
CENTRAL LI SOUND NOT AVBL
ROBBINS REEF     0542                   280/ 22/ 25 1010.4
$$


>>>>>>>>>>>>>>>>>>>>>>>>>>>> KEY <<<<<<<<<<<<<<<<<<<<<<<<<<<
>                                                          <
>     SKY/WX - Sky Condition/Present Weather               <
>     TMP    - Temperature in Fahrenheit                   <
>     DP     - Dew Point in Fahrenheit                     <
>     RH     - Relative Humidity in Percent                <
>     WIND   - Direction (from) and Speed in MPH           <
>     PRES   - Mean Sea Level Pressure (inches of Hg)      <
>     WCI    - Wind Chill Index                            <
>     VSB    - VISIBILITY IN MILES                         <
>     HX     - HEAT INDEX                                  <
>     TC     - TEMPERATURE IN CELSIUS                      <
>     VRB    - VARIABLE WIND DIRECTION                     <
>                                                          <
>>>>>>>>>>>>>>>>>>>>>>>>>>>> KEY <<<<<<<<<<<<<<<<<<<<<<<<<<<



USA.gov is the U.S. government's official web portal to all federal, state and local government web resources and services.